RH
78 79 83 97 95 95 95 95 94 94 94 93 93 94 95 94 94 95 95 95 94 94 96 94 93 93 92 93 93 93 58 62
80 82 84 82 81 97 96 96 96 95 95 95 95 95 94 94 95 95 95 95 95 94 95 94 94 94 94 95 94 94 63 63
81 83 81 82 81 80 95 96 96 97 93 96 94 74 74 74 82 91 94 96 96 96 96 96 96 96 96 96 95 61 67 58
73 82 85 83 76 80 80 78 77 78 78 82 85 85 82 75 82 96 95 95 97 96 97 96 94 66 67 89 64 62 65 60
47 80 83 86 82 81 74 75 82 84 85 86 88 85 84 82 80 76 76 87 70 78 79 78 76 70 67 68 64 67 62 60
37 72 83 84 79 84 92 88 86 84 87 90 88 95 93 92 82 80 80 79 76 73 69 81 81 79 75 74 72 64 59 59
47 66 84 85 89 92 91 90 89 88 91 91 93 94 94 92 92 92 84 73 80 82 77 78 85 87 84 78 74 71 68 67
72 78 85 89 90 91 94 94 96 96 95 93 91 95 96 95 93 94 94 94 92 85 80 79 79 84 90 89 78 72 71 75
68 71 79 86 81 84 85 90 88 90 91 90 88 90 92 92 93 94 91 91 95 91 92 91 80 80 84 87 90 86 76 76
62 63 73 79 79 77 76 79 82 83 84 84 79 78 82 88 90 92 87 94 92 89 94 95 95 91 83 81 87 92 90 84
66 69 72 74 72 65 69 72 66 70 66 70 75 70 72 73 76 83 86 95 95 97 95 94 91 91 93 92 91 95 91 92
65 68 74 72 63 63 58 60 63 61 60 65 69 75 71 72 70 74 75 76 83 95 98 97 96 93 94 95 95 97 91 96
62 68 71 68 64 65 62 63 63 61 61 67 69 72 76 72 66 71 74 75 74 75 80 96 98 97 98 96 93 94 96 95
64 66 68 69 65 66 66 67 63 65 63 67 67 71 75 70 77 77 80 80 79 77 76 80 96 95 96 95 98 93 88 90
69 72 71 73 69 60 61 62 61 62 63 64 66 70 72 78 78 79 80 84 87 87 86 80 82 94 90 94 98 94 74 74
66 70 74 75 75 71 71 75 78 71 69 66 67 70 73 76 78 81 84 86 88 88 84 87 85 83 90 92 79 89 93 96
77 69 73 77 79 78 79 78 75 71 69 72 72 71 71 75 78 81 83 84 87 90 90 90 89 87 78 91 96 91 88 96
68 72 73 76 78 80 87 85 80 78 76 76 75 71 72 73 76 79 81 84 87 88 89 90 93 92 88 78 87 80 81 85
82 82 82 77 74 74 77 79 78 78 78 78 79 75 76 76 77 81 82 83 83 85 88 89 91 94 92 90 82 81 73 75
75 75 75 75 78 80 78 75 77 76 75 76 76 77 75 74 77 78 80 80 82 83 87 91 92 95 94 93 90 78 77 77
Wind_Speed
5 7 10 8 9 10 12 12 11 11 10 9 9 8 9 10 11 11 11 10 10 10 10 11 11 10 9 9 9 9 7 5
5 5 7 8 9 6 6 7 9 11 11 10 8 8 9 10 10 10 10 9 10 10 11 10 10 9 8 8 9 8 9 7
5 6 7 7 7 7 7 8 7 6 7 9 8 9 11 12 11 8 10 9 9 10 10 10 9 8 8 7 8 6 8 6
7 6 7 6 6 6 7 6 6 7 8 8 8 9 9 9 8 8 8 9 8 8 8 9 9 8 7 7 7 8 7 7
10 9 8 8 6 5 4 4 4 5 8 7 7 6 7 7 6 7 8 9 9 10 10 10 12 9 9 8 8 8 6 6
10 10 9 9 6 5 4 3 4 4 4 6 5 4 5 5 5 7 8 7 9 10 8 10 12 12 12 11 10 8 6 5
10 7 9 8 9 5 4 3 4 4 4 4 4 4 5 5 5 4 6 8 8 8 10 10 10 11 11 12 12 11 11 6
10 11 11 4 5 6 4 3 3 2 3 2 3 3 2 3 4 5 5 5 5 8 10 10 10 9 10 12 13 12 11 10
15 13 13 11 7 5 3 4 4 5 4 6 6 5 4 1 3 5 5 7 8 8 8 8 10 9 12 10 10 12 12 12
16 15 15 12 11 7 5 6 4 5 4 4 6 5 4 3 2 3 3 4 7 8 7 8 8 9 10 11 10 10 13 13
18 18 18 15 11 8 7 8 6 5 4 5 6 6 5 2 1 3 5 5 5 5 7 9 10 9 9 7 8 7 9 7
17 14 17 15 10 6 4 6 7 7 6 7 8 6 6 4 1 2 3 4 5 5 6 6 9 9 7 7 6 6 8 8
19 18 16 13 11 9 6 7 6 7 8 11 10 8 8 6 4 5 4 4 5 6 6 8 6 5 6 8 12 7 9 11
18 17 16 12 9 9 5 7 5 6 8 9 11 11 9 7 6 5 6 5 7 7 6 4 5 7 5 3 4 10 13 12
15 15 15 13 13 7 8 6 9 8 10 9 11 12 11 9 7 6 6 4 5 7 8 9 6 4 13 5 4 6 8 8
14 13 14 12 13 11 13 8 9 10 10 9 9 11 11 10 10 10 9 7 7 6 6 7 7 9 6 11 12 4 5 4
10 12 12 12 12 13 9 12 10 10 9 11 10 9 11 11 12 11 10 8 9 9 9 9 6 8 9 5 7 9 9 4
11 11 12 13 14 15 15 12 10 9 12 10 9 10 9 11 13 10 10 10 10 9 10 10 9 8 8 11 10 8 9 9
13 12 12 12 14 14 14 12 11 9 10 10 13 10 9 11 13 12 9 11 12 11 11 11 10 9 11 8 10 12 12 8
13 13 14 14 12 11 11 10 7 8 10 10 9 9 9 13 12 12 13 13 12 12 9 8 9 9 13 12 9 12 12 11
Wind_Direction
237 219 204 209 213 201 187 180 181 185 191 192 192 192 189 191 194 196 194 191 187 180 177 181 188 193 196 175 172 184 204 199
256 252 232 219 220 216 204 202 192 184 186 193 198 198 201 198 198 204 204 198 195 188 184 185 188 197 201 184 174 184 215 205
240 235 228 228 235 228 212 205 197 189 200 195 187 211 211 213 214 205 208 205 204 198 187 184 185 196 208 209 184 212 207 219
263 242 240 233 235 238 233 231 227 221 211 211 211 212 212 218 219 211 217 214 212 208 194 186 186 208 210 214 226 223 217 222
278 225 217 217 220 220 219 222 218 220 228 217 212 211 216 209 221 220 223 212 224 214 209 215 211 210 211 214 222 226 224 225
286 237 213 212 208 208 223 203 212 217 210 204 220 208 202 210 218 217 222 222 225 224 220 220 217 214 217 219 221 229 231 235
309 271 222 205 195 204 206 208 227 208 197 196 188 215 222 207 207 213 227 226 227 226 231 224 217 214 217 223 224 228 235 228
11 23 10 300 208 170 144 122 88 78 59 39 232 192 211 250 224 212 211 204 207 230 236 232 226 212 211 216 227 228 234 234
21 24 27 29 31 41 63 82 103 103 96 61 54 40 27 308 239 244 234 204 208 222 238 237 231 221 218 208 217 226 226 228
24 18 19 17 20 29 29 44 55 66 69 81 71 68 39 13 321 291 328 326 251 225 223 227 235 230 222 221 213 214 224 214
25 21 16 7 11 28 32 36 34 36 35 47 54 47 47 65 12 318 334 304 297 277 234 220 227 223 221 216 217 222 235 247
28 24 16 11 8 358 22 41 35 25 18 26 24 16 10 358 358 350 324 296 278 274 287 256 233 230 205 220 207 196 216 236
26 23 20 19 17 6 3 18 10 20 14 9 8 7 6 5 352 340 336 299 290 285 277 276 245 230 224 217 240 259 227 221
25 24 18 22 27 21 5 334 1 359 355 355 2 355 356 354 357 349 335 314 297 283 269 272 248 201 222 236 162 209 234 230
20 20 17 16 11 29 31 19 11 353 348 351 353 351 348 356 353 346 329 301 293 296 290 263 248 232 203 174 169 220 232 216
32 17 16 15 15 22 37 41 19 345 333 337 340 348 343 354 352 353 341 324 304 294 286 283 273 250 267 224 222 162 210 201
23 29 19 19 11 34 22 33 27 330 328 337 351 345 343 353 350 345 342 328 318 312 303 282 266 265 257 266 249 227 223 222
27 33 20 11 22 22 27 11 357 339 348 342 347 350 341 352 340 346 338 325 320 315 304 294 288 268 262 268 257 246 221 221
8 13 21 21 19 25 11 5 356 355 347 356 350 339 341 341 341 340 337 325 320 311 304 296 283 275 269 255 261 262 259 247
13 12 8 10 16 14 23 2 3 1 8 358 345 337 334 341 339 341 337 331 328 324 310 305 307 288 267 257 256 257 261 241